Mount Airy, NC

4:57 PM EST on December 08, 2019 (GMT -0500)
Mount Airy-Surry County

Weather History for KMWK - October, 2019

Change the Weather History Date:

Tuesday, October 8, 2019

  Actual Average (WUND) Record (WUND)
Temperature  
Mean Temperature 63 °F -  
Max Temperature 68 °F - - (-1)
Min Temperature 58 °F - - (-1)
Degree Days  
Heating Degree Days 2    
Growing Degree Days 13 (Base 50)    
Moisture  
Dew Point 59 °F    
Average Humidity 86    
Maximum Humidity 91    
Minimum Humidity 80    
Precipitation  
Precipitation 0.00 in - - ()
Sea Level Pressure  
Sea Level Pressure 30.15 in    
Wind  
Wind Speed 3 mph ()    
Max Wind Speed 10 mph    
Max Gust Speed 18 mph    
Visibility 9.9 miles    
Events Rain    
Averages and records for this station are not official NWS values.
T = Trace of Precipitation, MM = Missing Value Source: Averaged Metar Reports

Daily Weather History Graph

Daily Weather History Graph

Search for Another Location

Airport or City:

Astronomy

Oct. 08, 2019 Rise Set
Actual Time 7:23 AM EDT 6:55 PM EDT
Civil Twilight 6:57 AM EDT 7:21 PM EDT
Nautical Twilight 6:27 AM EDT 7:51 PM EDT
Astronomical Twilight 5:57 AM EDT 8:21 PM EDT
Moon 4:43 PM EDT 2:22 AM EDT
Length of Visible Light 12h 24m
Length of Day
11h 32m
Waxing Gibbous, 77% of the Moon is Illuminated
Oct 8
Waxing Gibbous
Oct 13
Full
Oct 21
Last Quarter
Oct 27
New
Nov 4
First Quarter

Hourly Weather History & Observations

Time (EDT) Temp. Dew Point Humidity Pressure Visibility Wind Dir Wind Speed Gust Speed Precip Events Conditions
12:15 AM 68.5 °F 63.5 °F 84% 30.10 in 10.0 mi Calm Calm - N/A   Overcast
12:35 AM 68.0 °F 63.7 °F 86% 30.10 in 10.0 mi Calm Calm - N/A   Overcast
12:55 AM 67.6 °F 63.1 °F 85% 30.09 in 10.0 mi Calm Calm - N/A   Mostly Cloudy
1:15 AM 68.0 °F 63.3 °F 85% 30.09 in 10.0 mi Calm Calm - N/A   Mostly Cloudy
1:35 AM 68.0 °F 63.3 °F 85% 30.09 in 10.0 mi Calm Calm - N/A   Mostly Cloudy
1:55 AM 67.8 °F 63.1 °F 85% 30.09 in 10.0 mi Calm Calm - N/A   Mostly Cloudy
2:15 AM 67.1 °F 63.0 °F 87% 30.09 in 10.0 mi WNW 3.5 mph - N/A   Scattered Clouds
2:35 AM 66.9 °F 63.0 °F 87% 30.08 in 10.0 mi Calm Calm - N/A   Scattered Clouds
2:55 AM 67.1 °F 62.8 °F 86% 30.07 in 10.0 mi NW 3.5 mph - N/A   Clear
3:15 AM 66.7 °F 62.6 °F 86% 30.07 in 10.0 mi NW 3.5 mph - N/A   Scattered Clouds
3:35 AM 66.7 °F 62.6 °F 86% 30.07 in 10.0 mi Calm Calm - N/A   Mostly Cloudy
3:55 AM 67.1 °F 62.8 °F 86% 30.07 in 10.0 mi Calm Calm - N/A   Overcast
4:15 AM 67.1 °F 62.8 °F 86% 30.07 in 10.0 mi Calm Calm - N/A   Overcast
4:35 AM 68.2 °F 62.8 °F 83% 30.07 in 10.0 mi NE 4.6 mph - N/A   Mostly Cloudy
4:55 AM 68.4 °F 62.6 °F 82% 30.08 in 10.0 mi ENE 4.6 mph - N/A   Scattered Clouds
5:15 AM 68.0 °F 62.6 °F 83% 30.08 in 10.0 mi ENE 3.5 mph - N/A   Mostly Cloudy
5:35 AM 67.5 °F 62.2 °F 83% 30.09 in 10.0 mi NNE 5.8 mph - N/A   Mostly Cloudy
5:55 AM 67.1 °F 61.7 °F 83% 30.09 in 10.0 mi ENE 8.1 mph - N/A   Overcast
6:15 AM 66.6 °F 61.5 °F 84% 30.10 in 10.0 mi ENE 9.2 mph - N/A   Overcast
6:35 AM 66.2 °F 61.0 °F 83% 30.11 in 10.0 mi ENE 6.9 mph - N/A   Overcast
6:55 AM 65.5 °F 60.1 °F 83% 30.12 in 10.0 mi NE 4.6 mph - N/A   Overcast
7:15 AM 65.3 °F 59.9 °F 83% 30.13 in 10.0 mi NE 3.5 mph - N/A   Overcast
7:35 AM 64.9 °F 59.7 °F 83% 30.12 in 10.0 mi ENE 6.9 mph - N/A   Overcast
7:55 AM 64.8 °F 59.9 °F 84% 30.13 in 10.0 mi NE 3.5 mph - N/A   Overcast
8:15 AM 64.6 °F 59.5 °F 84% 30.14 in 10.0 mi ENE 5.8 mph - N/A   Overcast
8:35 AM 64.0 °F 58.8 °F 83% 30.14 in 10.0 mi ENE 8.1 mph - N/A   Overcast
8:55 AM 63.9 °F 58.6 °F 83% 30.14 in 10.0 mi ENE 8.1 mph - N/A   Overcast
9:15 AM 63.9 °F 58.3 °F 82% 30.14 in 10.0 mi NE 10.4 mph 17.3 mph N/A   Overcast
9:35 AM 63.7 °F 58.1 °F 82% 30.15 in 10.0 mi NE 9.2 mph 16.1 mph N/A   Overcast
9:55 AM 63.9 °F 57.9 °F 81% 30.16 in 10.0 mi NNE 8.1 mph - N/A   Overcast
10:15 AM 63.5 °F 57.6 °F 81% 30.16 in 10.0 mi NE 8.1 mph - N/A   Overcast
10:35 AM 63.5 °F 57.4 °F 80% 30.17 in 10.0 mi ENE 10.4 mph 18.4 mph N/A   Overcast
10:55 AM 63.0 °F 57.2 °F 81% 30.18 in 10.0 mi ENE 8.1 mph - N/A   Overcast
11:15 AM 62.8 °F 56.8 °F 81% 30.18 in 10.0 mi NE 8.1 mph 17.3 mph N/A   Overcast
11:35 AM 62.8 °F 57.0 °F 81% 30.18 in 10.0 mi ENE 5.8 mph - N/A   Overcast
11:55 AM 63.1 °F 57.4 °F 81% 30.18 in 10.0 mi NNE 5.8 mph - N/A   Overcast
12:15 PM 62.8 °F 57.2 °F 82% 30.19 in 10.0 mi NE 5.8 mph - N/A   Overcast
12:35 PM 62.6 °F 56.8 °F 81% 30.19 in 10.0 mi NE 6.9 mph - N/A   Overcast
12:55 PM 62.8 °F 57.0 °F 81% 30.19 in 10.0 mi ENE 4.6 mph - N/A   Overcast
1:15 PM 62.6 °F 56.7 °F 81% 30.18 in 10.0 mi NE 6.9 mph - N/A   Overcast
1:35 PM 62.6 °F 56.7 °F 81% 30.17 in 10.0 mi East 6.9 mph - N/A   Overcast
1:55 PM 61.7 °F 57.0 °F 85% 30.17 in 7.0 mi NNE 5.8 mph - N/A Rain Rain
2:15 PM 60.8 °F 57.4 °F 88% 30.17 in 7.0 mi NE 4.6 mph - N/A   Drizzle
2:35 PM 60.8 °F 57.7 °F 90% 30.16 in 7.0 mi NE 6.9 mph - N/A   Light Drizzle
2:55 PM 60.3 °F 57.2 °F 90% 30.16 in 10.0 mi NNE 4.6 mph - N/A   Light Drizzle
3:15 PM 60.4 °F 57.4 °F 90% 30.16 in 10.0 mi Calm Calm - N/A Rain Rain
3:35 PM 60.4 °F 57.2 °F 89% 30.16 in 10.0 mi Calm Calm - N/A Rain Rain
3:55 PM 60.8 °F 57.6 °F 89% 30.15 in 10.0 mi NE 5.8 mph - N/A   Light Drizzle
4:15 PM 60.8 °F 57.4 °F 88% 30.15 in 10.0 mi NE 5.8 mph - N/A   Scattered Clouds
4:35 PM 60.4 °F 57.2 °F 89% 30.15 in 10.0 mi North 4.6 mph - N/A   Mostly Cloudy
4:55 PM 59.9 °F 56.5 °F 88% 30.15 in 10.0 mi NNE 3.5 mph - N/A Rain Light Rain
5:15 PM 59.9 °F 56.3 °F 88% 30.15 in 10.0 mi NNE 8.1 mph - N/A   Light Drizzle
5:35 PM 60.3 °F 56.5 °F 87% 30.15 in 10.0 mi NE 4.6 mph - N/A   Overcast
5:55 PM 60.4 °F 56.3 °F 86% 30.16 in 10.0 mi ENE 5.8 mph - N/A   Mostly Cloudy
6:15 PM 60.3 °F 55.9 °F 86% 30.16 in 10.0 mi NE 6.9 mph - N/A   Mostly Cloudy
6:35 PM 60.3 °F 55.9 °F 86% 30.17 in 10.0 mi NE 4.6 mph - N/A   Overcast
6:55 PM 60.1 °F 56.1 °F 87% 30.16 in 10.0 mi ENE 3.5 mph - N/A   Overcast
7:15 PM 60.3 °F 55.9 °F 86% 30.17 in 10.0 mi Calm Calm - N/A   Overcast
7:35 PM 59.9 °F 55.9 °F 87% 30.18 in 10.0 mi ENE 3.5 mph - N/A   Overcast
7:55 PM 59.9 °F 56.1 °F 87% 30.18 in 10.0 mi East 3.5 mph - N/A   Light Drizzle
8:15 PM 58.6 °F 55.6 °F 90% 30.18 in 10.0 mi East 4.6 mph - N/A Rain Rain
8:35 PM 58.5 °F 55.8 °F 91% 30.18 in 10.0 mi East 3.5 mph - N/A Rain Light Rain
8:55 PM 59.0 °F 56.5 °F 91% 30.18 in 10.0 mi ENE 3.5 mph - N/A Rain Rain
9:15 PM 59.0 °F 56.3 °F 91% 30.19 in 10.0 mi NE 3.5 mph - N/A Rain Light Rain
9:35 PM 59.0 °F 56.3 °F 91% 30.19 in 10.0 mi Calm Calm - N/A Rain Rain
9:55 PM 58.3 °F 55.6 °F 91% 30.19 in 10.0 mi Calm Calm - N/A   Light Drizzle
10:15 PM 58.6 °F 55.8 °F 90% 30.20 in 10.0 mi NE 3.5 mph - N/A   Mostly Cloudy
10:35 PM 58.5 °F 55.6 °F 90% 30.21 in 10.0 mi NE 4.6 mph - N/A   Overcast
10:55 PM 58.3 °F 55.4 °F 90% 30.20 in 10.0 mi NE 3.5 mph - N/A   Mostly Cloudy
11:15 PM 58.1 °F 55.4 °F 91% 30.20 in 10.0 mi NE 3.5 mph - N/A   Overcast
11:35 PM 58.3 °F 55.4 °F 90% 30.21 in 10.0 mi NNE 5.8 mph - N/A   Overcast
11:55 PM 58.3 °F 55.2 °F 90% 30.21 in 10.0 mi NNE 3.5 mph - N/A   Overcast